QPF
0.00 0.01 0.01 0.01 0.02 0.03 0.04 0.06 0.09 0.07 0.02 0.00 0.00 0.00 0.00 0.00 0.00 0.01 0.01 0.00 0.01 0.01 0.02 0.01 0.01 0.01 0.01 0.02 0.02 0.03 0.03 0.04 0.07 0.10 0.21 0.36 0.47 0.55
0.00 0.01 0.01 0.01 0.02 0.02 0.03 0.04 0.06 0.09 0.06 0.01 0.00 0.00 0.00 0.00 0.00 0.01 0.01 0.01 0.01 0.01 0.01 0.02 0.02 0.01 0.01 0.01 0.02 0.02 0.02 0.03 0.05 0.09 0.15 0.29 0.42 0.53
0.00 0.00 0.01 0.01 0.02 0.02 0.03 0.03 0.04 0.06 0.06 0.01 0.00 0.00 0.00 0.01 0.01 0.00 0.00 0.00 0.00 0.00 0.01 0.01 0.02 0.01 0.01 0.01 0.01 0.02 0.02 0.02 0.04 0.06 0.12 0.24 0.37 0.44
0.00 0.00 0.01 0.01 0.01 0.02 0.02 0.03 0.03 0.04 0.05 0.03 0.01 0.01 0.01 0.02 0.01 0.01 0.00 0.00 0.00 0.00 0.01 0.01 0.02 0.02 0.01 0.01 0.01 0.02 0.01 0.02 0.02 0.04 0.08 0.17 0.28 0.39
0.01 0.01 0.01 0.01 0.01 0.01 0.01 0.03 0.03 0.03 0.04 0.03 0.01 0.01 0.01 0.02 0.02 0.01 0.00 0.00 0.00 0.00 0.01 0.01 0.01 0.02 0.02 0.01 0.01 0.02 0.01 0.01 0.01 0.03 0.06 0.13 0.25 0.34
0.01 0.01 0.02 0.02 0.01 0.02 0.02 0.04 0.04 0.04 0.02 0.01 0.01 0.01 0.01 0.01 0.00 0.00 0.00 0.00 0.00 0.00 0.00 0.00 0.01 0.01 0.01 0.01 0.01 0.01 0.01 0.01 0.02 0.03 0.05 0.09 0.19 0.33
0.02 0.02 0.02 0.02 0.02 0.04 0.06 0.07 0.06 0.04 0.02 0.01 0.01 0.00 0.00 0.00 0.00 0.00 0.00 0.00 0.00 0.00 0.00 0.00 0.00 0.00 0.01 0.01 0.01 0.02 0.02 0.02 0.02 0.02 0.03 0.06 0.14 0.26
0.02 0.02 0.01 0.01 0.01 0.02 0.04 0.06 0.04 0.03 0.02 0.02 0.01 0.01 0.00 0.00 0.00 0.00 0.01 0.01 0.00 0.00 0.00 0.00 0.00 0.00 0.01 0.01 0.01 0.02 0.02 0.02 0.02 0.02 0.02 0.04 0.08 0.19
0.02 0.01 0.01 0.00 0.01 0.01 0.04 0.03 0.01 0.01 0.01 0.02 0.02 0.00 0.01 0.01 0.02 0.01 0.01 0.01 0.01 0.00 0.01 0.00 0.00 0.00 0.01 0.01 0.02 0.02 0.02 0.02 0.02 0.02 0.02 0.03 0.05 0.10
0.01 0.01 0.01 0.00 0.00 0.06 0.10 0.04 0.01 0.00 0.01 0.01 0.01 0.02 0.02 0.03 0.05 0.04 0.02 0.01 0.00 0.01 0.03 0.02 0.00 0.01 0.01 0.02 0.02 0.02 0.02 0.02 0.02 0.03 0.03 0.03 0.05 0.06
0.01 0.00 0.01 0.01 0.03 0.09 0.08 0.03 0.01 0.00 0.00 0.01 0.01 0.01 0.02 0.03 0.04 0.05 0.02 0.01 0.02 0.03 0.03 0.03 0.01 0.01 0.01 0.02 0.02 0.02 0.03 0.03 0.03 0.03 0.04 0.04 0.05 0.07
0.01 0.00 0.00 0.02 0.06 0.07 0.05 0.02 0.02 0.02 0.01 0.00 0.00 0.00 0.00 0.00 0.01 0.02 0.03 0.03 0.03 0.04 0.03 0.03 0.03 0.04 0.03 0.02 0.03 0.03 0.03 0.03 0.03 0.03 0.04 0.05 0.06 0.07
0.01 0.00 0.00 0.03 0.06 0.04 0.03 0.02 0.03 0.03 0.01 0.00 0.00 0.00 0.00 0.01 0.01 0.01 0.02 0.04 0.05 0.04 0.03 0.04 0.05 0.07 0.06 0.04 0.04 0.04 0.04 0.03 0.03 0.03 0.04 0.06 0.07 0.06
0.01 0.01 0.02 0.04 0.04 0.02 0.01 0.02 0.02 0.01 0.00 0.00 0.00 0.00 0.01 0.01 0.01 0.01 0.02 0.03 0.04 0.04 0.03 0.06 0.07 0.08 0.09 0.06 0.06 0.06 0.06 0.05 0.04 0.03 0.04 0.06 0.08 0.08
0.01 0.01 0.02 0.02 0.01 0.00 0.00 0.01 0.01 0.00 0.00 0.01 0.01 0.01 0.01 0.01 0.01 0.01 0.01 0.02 0.03 0.03 0.03 0.05 0.08 0.10 0.11 0.09 0.08 0.08 0.08 0.08 0.07 0.06 0.04 0.05 0.06 0.08
0.01 0.00 0.00 0.00 0.00 0.00 0.00 0.00 0.00 0.00 0.01 0.01 0.01 0.01 0.01 0.01 0.01 0.01 0.02 0.02 0.03 0.03 0.03 0.04 0.08 0.11 0.11 0.11 0.10 0.10 0.10 0.11 0.10 0.08 0.06 0.05 0.05 0.05
0.02 0.00 0.00 0.00 0.00 0.00 0.00 0.00 0.00 0.00 0.00 0.00 0.01 0.01 0.01 0.01 0.01 0.02 0.02 0.03 0.04 0.04 0.04 0.05 0.08 0.11 0.13 0.15 0.13 0.12 0.12 0.12 0.12 0.11 0.09 0.07 0.06 0.06
0.01 0.00 0.00 0.00 0.00 0.01 0.01 0.00 0.00 0.00 0.01 0.01 0.01 0.01 0.02 0.02 0.02 0.02 0.02 0.03 0.03 0.04 0.06 0.07 0.10 0.12 0.15 0.17 0.16 0.14 0.13 0.13 0.15 0.15 0.11 0.09 0.09 0.08
0.00 0.00 0.00 0.00 0.01 0.01 0.01 0.01 0.01 0.01 0.01 0.01 0.01 0.01 0.01 0.02 0.02 0.02 0.02 0.03 0.03 0.04 0.06 0.09 0.11 0.15 0.17 0.19 0.18 0.17 0.17 0.17 0.19 0.19 0.16 0.11 0.09 0.09
0.00 0.00 0.01 0.01 0.01 0.01 0.01 0.01 0.01 0.01 0.01 0.01 0.01 0.01 0.01 0.02 0.02 0.02 0.03 0.03 0.03 0.04 0.05 0.07 0.10 0.14 0.19 0.22 0.22 0.20 0.22 0.21 0.21 0.22 0.19 0.14 0.13 0.15
0.00 0.00 0.01 0.01 0.01 0.01 0.01 0.01 0.01 0.01 0.01 0.01 0.01 0.01 0.01 0.01 0.02 0.02 0.02 0.03 0.04 0.04 0.06 0.07 0.08 0.12 0.17 0.21 0.22 0.21 0.23 0.27 0.27 0.24 0.21 0.16 0.17 0.19
0.00 0.00 0.01 0.01 0.01 0.02 0.01 0.01 0.01 0.01 0.01 0.01 0.01 0.01 0.01 0.01 0.02 0.02 0.02 0.03 0.04 0.05 0.06 0.07 0.08 0.10 0.16 0.21 0.23 0.24 0.25 0.28 0.31 0.32 0.27 0.20 0.16 0.17
0.00 0.00 0.01 0.01 0.01 0.01 0.01 0.01 0.01 0.01 0.01 0.01 0.01 0.01 0.01 0.01 0.01 0.02 0.02 0.03 0.04 0.04 0.05 0.06 0.08 0.11 0.17 0.21 0.24 0.26 0.28 0.29 0.31 0.33 0.37 0.32 0.22 0.19
MSLP
1024.54 1024.22 1023.80 1023.25 1022.53 1021.64 1020.61 1019.47 1018.27 1017.08 1015.95 1014.91 1013.98 1013.15 1012.41 1011.71 1011.03 1010.34 1009.64 1008.93 1008.24 1007.60 1007.02 1006.53 1006.14 1005.81 1005.54 1005.28 1005.01 1004.71 1004.37 1004.01 1003.68 1003.41 1003.26 1003.29 1003.51 1003.94
1023.57 1023.24 1022.84 1022.32 1021.66 1020.86 1019.92 1018.89 1017.79 1016.68 1015.61 1014.61 1013.70 1012.87 1012.10 1011.37 1010.65 1009.93 1009.20 1008.47 1007.77 1007.12 1006.55 1006.07 1005.69 1005.39 1005.14 1004.92 1004.68 1004.41 1004.11 1003.78 1003.46 1003.19 1003.01 1002.97 1003.12 1003.46
1022.45 1022.08 1021.67 1021.18 1020.59 1019.88 1019.06 1018.16 1017.20 1016.23 1015.27 1014.36 1013.50 1012.70 1011.93 1011.18 1010.43 1009.66 1008.89 1008.12 1007.38 1006.70 1006.10 1005.60 1005.20 1004.89 1004.65 1004.45 1004.24 1004.02 1003.77 1003.50 1003.22 1002.97 1002.80 1002.75 1002.84 1003.10
1021.22 1020.81 1020.38 1019.90 1019.37 1018.76 1018.07 1017.32 1016.52 1015.71 1014.89 1014.10 1013.33 1012.58 1011.83 1011.08 1010.30 1009.50 1008.67 1007.85 1007.05 1006.32 1005.66 1005.11 1004.67 1004.33 1004.07 1003.86 1003.69 1003.51 1003.32 1003.11 1002.91 1002.73 1002.60 1002.55 1002.63 1002.84
1019.95 1019.49 1019.04 1018.57 1018.09 1017.57 1017.01 1016.41 1015.78 1015.13 1014.47 1013.80 1013.13 1012.45 1011.74 1010.99 1010.21 1009.38 1008.51 1007.64 1006.79 1005.98 1005.26 1004.63 1004.12 1003.72 1003.42 1003.19 1003.01 1002.87 1002.73 1002.60 1002.48 1002.38 1002.32 1002.32 1002.41 1002.60
1018.72 1018.21 1017.73 1017.29 1016.85 1016.41 1015.96 1015.49 1015.00 1014.49 1013.97 1013.43 1012.85 1012.25 1011.59 1010.87 1010.10 1009.26 1008.38 1007.47 1006.57 1005.71 1004.91 1004.21 1003.61 1003.12 1002.75 1002.47 1002.27 1002.12 1002.03 1001.96 1001.92 1001.91 1001.93 1001.99 1002.12 1002.32
1017.58 1017.04 1016.55 1016.11 1015.71 1015.33 1014.96 1014.59 1014.21 1013.82 1013.41 1012.96 1012.48 1011.94 1011.34 1010.67 1009.93 1009.11 1008.24 1007.33 1006.40 1005.50 1004.64 1003.86 1003.17 1002.58 1002.11 1001.75 1001.49 1001.32 1001.23 1001.20 1001.22 1001.28 1001.38 1001.52 1001.70 1001.93
1016.60 1016.04 1015.55 1015.11 1014.73 1014.39 1014.07 1013.76 1013.45 1013.13 1012.79 1012.41 1011.99 1011.52 1010.98 1010.37 1009.68 1008.91 1008.08 1007.20 1006.28 1005.36 1004.46 1003.61 1002.84 1002.15 1001.57 1001.11 1000.76 1000.53 1000.40 1000.36 1000.41 1000.52 1000.68 1000.89 1001.12 1001.40
1015.80 1015.24 1014.74 1014.31 1013.94 1013.61 1013.31 1013.02 1012.74 1012.45 1012.14 1011.80 1011.42 1010.99 1010.51 1009.96 1009.34 1008.65 1007.89 1007.07 1006.19 1005.29 1004.38 1003.49 1002.64 1001.85 1001.16 1000.58 1000.13 999.80 999.61 999.53 999.57 999.69 999.88 1000.13 1000.42 1000.74
1015.18 1014.63 1014.14 1013.71 1013.34 1013.01 1012.70 1012.41 1012.11 1011.81 1011.50 1011.16 1010.80 1010.40 1009.96 1009.48 1008.94 1008.33 1007.66 1006.92 1006.11 1005.25 1004.36 1003.45 1002.55 1001.69 1000.90 1000.21 999.64 999.21 998.92 998.77 998.76 998.86 999.06 999.33 999.64 1000.00
1014.71 1014.18 1013.70 1013.29 1012.91 1012.57 1012.24 1011.92 1011.59 1011.26 1010.91 1010.55 1010.18 1009.79 1009.39 1008.95 1008.48 1007.95 1007.37 1006.72 1005.99 1005.20 1004.34 1003.45 1002.53 1001.62 1000.76 999.98 999.31 998.77 998.38 998.15 998.07 998.13 998.29 998.55 998.88 999.25
1014.34 1013.85 1013.41 1013.01 1012.63 1012.28 1011.93 1011.57 1011.20 1010.81 1010.42 1010.03 1009.63 1009.23 1008.83 1008.42 1007.99 1007.53 1007.01 1006.44 1005.79 1005.07 1004.27 1003.40 1002.49 1001.58 1000.68 999.84 999.09 998.47 998.00 997.69 997.53 997.53 997.65 997.88 998.19 998.57
1014.03 1013.60 1013.20 1012.82 1012.47 1012.11 1011.74 1011.35 1010.94 1010.51 1010.07 1009.62 1009.18 1008.75 1008.33 1007.91 1007.49 1007.06 1006.59 1006.06 1005.47 1004.80 1004.06 1003.24 1002.37 1001.47 1000.57 999.72 998.94 998.27 997.74 997.36 997.14 997.07 997.14 997.33 997.62 997.98
1013.77 1013.39 1013.05 1012.71 1012.38 1012.03 1011.65 1011.24 1010.80 1010.33 1009.85 1009.36 1008.87 1008.39 1007.92 1007.47 1007.02 1006.57 1006.09 1005.58 1005.01 1004.37 1003.67 1002.90 1002.08 1001.23 1000.37 999.53 998.76 998.08 997.53 997.11 996.84 996.72 996.74 996.89 997.14 997.49
1013.53 1013.22 1012.93 1012.64 1012.34 1012.00 1011.63 1011.22 1010.77 1010.28 1009.76 1009.23 1008.69 1008.15 1007.63 1007.11 1006.60 1006.08 1005.56 1005.01 1004.42 1003.79 1003.10 1002.37 1001.60 1000.80 999.99 999.21 998.47 997.82 997.27 996.84 996.55 996.40 996.38 996.49 996.73 997.06
1013.33 1013.08 1012.84 1012.59 1012.31 1012.00 1011.65 1011.25 1010.80 1010.31 1009.78 1009.22 1008.64 1008.05 1007.45 1006.85 1006.25 1005.64 1005.03 1004.40 1003.75 1003.08 1002.39 1001.67 1000.93 1000.18 999.43 998.71 998.03 997.41 996.89 996.47 996.18 996.01 995.98 996.07 996.29 996.61
1013.16 1012.96 1012.76 1012.54 1012.29 1012.00 1011.66 1011.28 1010.85 1010.38 1009.86 1009.29 1008.69 1008.06 1007.40 1006.71 1006.01 1005.29 1004.56 1003.82 1003.08 1002.34 1001.60 1000.85 1000.12 999.40 998.70 998.02 997.40 996.83 996.34 995.95 995.66 995.49 995.46 995.55 995.77 996.11
1013.04 1012.87 1012.68 1012.47 1012.23 1011.95 1011.63 1011.28 1010.89 1010.44 1009.95 1009.41 1008.81 1008.16 1007.45 1006.69 1005.89 1005.06 1004.21 1003.35 1002.49 1001.65 1000.83 1000.04 999.28 998.55 997.86 997.22 996.62 996.09 995.63 995.25 994.98 994.82 994.79 994.90 995.14 995.52
1012.95 1012.79 1012.59 1012.37 1012.11 1011.84 1011.53 1011.21 1010.85 1010.46 1010.02 1009.52 1008.96 1008.32 1007.59 1006.79 1005.92 1005.00 1004.03 1003.05 1002.08 1001.12 1000.20 999.33 998.51 997.74 997.03 996.38 995.79 995.26 994.80 994.44 994.17 994.03 994.01 994.15 994.44 994.87
1012.88 1012.70 1012.47 1012.22 1011.94 1011.65 1011.35 1011.05 1010.73 1010.40 1010.03 1009.60 1009.10 1008.50 1007.80 1006.99 1006.08 1005.09 1004.05 1002.97 1001.88 1000.81 999.78 998.81 997.91 997.08 996.31 995.62 995.00 994.45 993.98 993.61 993.34 993.21 993.21 993.39 993.73 994.24
1012.79 1012.57 1012.31 1012.01 1011.69 1011.37 1011.08 1010.79 1010.53 1010.26 1009.97 1009.62 1009.20 1008.68 1008.03 1007.25 1006.35 1005.34 1004.24 1003.09 1001.91 1000.75 999.62 998.56 997.56 996.65 995.81 995.05 994.38 993.79 993.29 992.89 992.62 992.49 992.52 992.73 993.13 993.72
1012.64 1012.40 1012.08 1011.73 1011.37 1011.03 1010.73 1010.46 1010.24 1010.04 1009.83 1009.58 1009.25 1008.82 1008.25 1007.54 1006.68 1005.68 1004.58 1003.39 1002.17 1000.94 999.73 998.59 997.51 996.51 995.59 994.77 994.03 993.39 992.85 992.42 992.14 992.01 992.06 992.32 992.77 993.44
1012.42 1012.14 1011.79 1011.40 1011.01 1010.64 1010.33 1010.08 1009.89 1009.75 1009.62 1009.46 1009.24 1008.91 1008.44 1007.81 1007.02 1006.07 1005.00 1003.83 1002.59 1001.33 1000.09 998.89 997.75 996.68 995.71 994.82 994.03 993.34 992.76 992.31 992.02 991.89 991.96 992.25 992.76 993.49
Thickness
5186 5174 5163 5155 5148 5141 5135 5131 5129 5136 5147 5153 5156 5165 5173 5186 5202 5220 5240 5261 5285 5310 5336 5364 5391 5419 5446 5473 5500 5524 5549 5572 5593 5612 5631 5649 5662 5672
5187 5177 5167 5159 5151 5144 5140 5136 5133 5134 5142 5152 5156 5163 5171 5183 5198 5214 5231 5253 5274 5297 5322 5348 5376 5403 5431 5459 5485 5511 5536 5559 5581 5601 5621 5639 5654 5665
5190 5180 5171 5162 5154 5148 5143 5140 5139 5139 5143 5154 5158 5164 5172 5182 5196 5210 5227 5246 5265 5287 5310 5336 5363 5390 5418 5445 5472 5498 5523 5547 5569 5590 5609 5628 5645 5658
5194 5184 5175 5167 5158 5152 5147 5144 5144 5144 5145 5152 5160 5166 5173 5182 5194 5207 5224 5241 5259 5280 5302 5326 5352 5378 5405 5432 5459 5486 5511 5534 5557 5579 5600 5620 5636 5649
5198 5188 5180 5170 5163 5157 5152 5149 5149 5150 5150 5153 5161 5167 5174 5183 5193 5207 5221 5236 5254 5273 5295 5317 5342 5368 5395 5422 5449 5475 5501 5527 5550 5570 5588 5606 5624 5640
5203 5193 5184 5175 5168 5162 5158 5155 5154 5153 5153 5156 5162 5169 5175 5183 5191 5204 5220 5235 5250 5268 5287 5308 5331 5356 5384 5412 5443 5469 5493 5514 5536 5558 5579 5597 5615 5632
5208 5198 5188 5180 5175 5169 5166 5162 5159 5157 5157 5159 5164 5171 5177 5183 5191 5202 5216 5231 5248 5264 5280 5300 5322 5349 5375 5403 5429 5456 5481 5505 5527 5549 5569 5589 5607 5624
5212 5202 5192 5184 5178 5175 5171 5168 5165 5162 5161 5162 5165 5169 5174 5182 5191 5202 5214 5227 5244 5259 5272 5294 5314 5339 5365 5392 5421 5447 5472 5496 5519 5541 5561 5581 5599 5615
5213 5204 5196 5188 5183 5175 5172 5170 5166 5166 5166 5166 5166 5169 5175 5183 5192 5203 5213 5224 5237 5252 5265 5289 5311 5334 5359 5386 5413 5439 5465 5489 5511 5533 5554 5573 5591 5608
5216 5206 5197 5190 5184 5181 5177 5172 5168 5166 5166 5167 5169 5173 5180 5187 5194 5203 5213 5223 5236 5250 5262 5282 5306 5329 5354 5380 5407 5433 5458 5482 5505 5526 5547 5566 5583 5600
5219 5209 5201 5194 5190 5188 5181 5174 5170 5169 5170 5172 5175 5179 5185 5190 5197 5204 5211 5221 5234 5248 5260 5276 5298 5320 5347 5376 5403 5428 5453 5476 5498 5519 5539 5558 5575 5591
5222 5212 5204 5199 5196 5191 5183 5177 5173 5172 5171 5172 5174 5178 5182 5187 5195 5200 5205 5215 5226 5240 5256 5268 5286 5306 5336 5367 5394 5420 5444 5469 5491 5512 5532 5551 5567 5582
5224 5214 5206 5203 5198 5192 5186 5179 5177 5177 5173 5172 5174 5179 5183 5188 5193 5199 5206 5213 5223 5235 5249 5260 5277 5295 5318 5348 5380 5410 5435 5460 5484 5505 5525 5543 5560 5577
5225 5216 5209 5205 5198 5192 5186 5183 5181 5177 5173 5174 5175 5179 5183 5189 5195 5201 5209 5217 5225 5235 5246 5256 5270 5287 5307 5332 5363 5397 5426 5453 5477 5499 5519 5537 5553 5570
5226 5219 5212 5205 5197 5189 5185 5183 5179 5174 5174 5174 5175 5179 5183 5189 5196 5204 5212 5220 5230 5240 5250 5259 5271 5285 5302 5324 5351 5380 5410 5440 5467 5490 5511 5530 5548 5564
5226 5218 5211 5202 5195 5190 5185 5180 5176 5175 5175 5174 5176 5180 5185 5192 5198 5205 5213 5222 5232 5243 5253 5263 5274 5288 5305 5324 5344 5371 5398 5427 5457 5482 5505 5524 5542 5560
5228 5218 5209 5201 5194 5189 5184 5180 5177 5176 5175 5176 5178 5181 5187 5193 5199 5206 5213 5222 5231 5241 5254 5267 5279 5293 5309 5325 5346 5371 5396 5423 5449 5473 5495 5516 5536 5555
5228 5217 5208 5200 5194 5189 5184 5181 5178 5177 5176 5177 5179 5182 5187 5193 5200 5207 5215 5222 5232 5243 5254 5267 5282 5298 5315 5333 5350 5371 5394 5420 5444 5466 5488 5512 5532 5550
5225 5216 5208 5201 5195 5189 5184 5181 5179 5178 5177 5178 5179 5182 5188 5194 5201 5208 5216 5224 5234 5245 5257 5269 5283 5298 5318 5339 5359 5374 5395 5418 5439 5462 5486 5509 5531 5549
5224 5216 5209 5202 5196 5190 5186 5182 5180 5179 5179 5179 5181 5184 5188 5194 5201 5209 5216 5224 5235 5247 5260 5273 5286 5300 5317 5335 5353 5374 5394 5414 5437 5461 5483 5503 5523 5540
5226 5218 5211 5204 5198 5192 5187 5184 5181 5181 5180 5181 5183 5185 5189 5195 5202 5209 5218 5228 5238 5248 5261 5276 5291 5306 5321 5336 5354 5375 5395 5415 5437 5459 5481 5500 5515 5529
5227 5220 5213 5207 5200 5194 5189 5186 5184 5183 5182 5182 5184 5187 5191 5196 5203 5211 5219 5229 5239 5250 5263 5280 5297 5313 5328 5345 5362 5379 5396 5416 5436 5457 5478 5500 5516 5532
5229 5222 5215 5209 5203 5197 5192 5189 5186 5185 5184 5185 5186 5190 5194 5199 5206 5213 5221 5231 5242 5254 5269 5284 5301 5316 5332 5347 5363 5380 5397 5415 5434 5454 5471 5492 5513 5532